M I D A S
Marine Information and Data Acquisition System
Tripno 1244 of the Zeeleeuw from 2007-04-10 06:39:03 to 2007-04-10 13:06:46
Back to CruiseResearch ActivitiesStationsMapUnderway DataData graphs

EquipmentUnitsComments
TimeDGPSUTC
LatitudeDGPSDM.mWGS84
LongitudeDGPSDM.mWGS84
SpeedMeteo Stationm/sRelative wind speed
DirectionMeteo StationdegRelative wind direction
TemperatureMeteo Stationdeg CelciusAir temperature
PressureMeteo StationPaAtmospheric pressure
HumidityMeteo Station%Relative humidity
Missing or incorrect values are displayed as -999
Metereological data collected by the RV Zeeleeuw from 2007-04-10 06:40:54 to 2007-04-10 13:10:20
                                                                                    Next 1000 lines
Time Latitude Longitude Speed Direction Temperature Pressure Humidity
2007-04-10 06:41:03 51°13.601 2°56.099 2.6 75 10.4 102150 95
2007-04-10 06:41:09 51°13.602 2°56.097 2.7 32 10.4 102150 95
2007-04-10 06:41:14 51°13.602 2°56.095 2.5 81 10.4 102150 95
2007-04-10 06:41:19 51°13.602 2°56.093 2.8 31 10.4 102150 95
2007-04-10 06:41:24 51°13.603 2°56.09 2.8 79 10.4 102150 95
2007-04-10 06:41:29 51°13.604 2°56.087 3.3 36 10.5 102140 95
2007-04-10 06:41:34 51°13.605 2°56.083 3.3 82 10.5 102140 95
2007-04-10 06:41:40 51°13.606 2°56.077 3.2 37 10.5 102150 95
2007-04-10 06:41:46 51°13.608 2°56.071 3.6 78 10.5 102150 95
2007-04-10 06:41:51 51°13.609 2°56.065 4.9 33 10.6 102150 95
2007-04-10 06:41:57 51°13.611 2°56.057 4.1 76 10.6 102150 95
2007-04-10 06:42:03 51°13.613 2°56.049 2.6 39 10.6 102150 95
2007-04-10 06:42:08 51°13.614 2°56.042 3.1 74 10.6 102150 95
2007-04-10 06:42:13 51°13.616 2°56.035 5.7 37 10.6 102150 95
2007-04-10 06:42:18 51°13.618 2°56.028 5.5 81 10.6 102150 95
2007-04-10 06:42:23 51°13.62 2°56.02 3.4 32 10.6 102150 95
2007-04-10 06:42:28 51°13.622 2°56.013 3.9 80 10.7 102140 95
2007-04-10 06:42:33 51°13.624 2°56.005 3.5 36 10.7 102150 95
2007-04-10 06:42:38 51°13.626 2°55.996 4.7 80 10.7 102150 95
2007-04-10 06:42:43 51°13.628 2°55.988 5.2 35 10.7 102150 95
2007-04-10 06:42:48 51°13.631 2°55.979 5.4 81 10.7 102140 95
2007-04-10 06:42:53 51°13.633 2°55.971 5.3 36 10.7 102140 95
2007-04-10 06:42:58 51°13.636 2°55.962 6 76 10.7 102140 95
2007-04-10 06:43:03 51°13.639 2°55.953 5.9 36 10.7 102140 95
2007-04-10 06:43:08 51°13.642 2°55.944 5.3 75 10.8 102140 95
2007-04-10 06:43:13 51°13.645 2°55.935 5.8 37 10.8 102140 95
2007-04-10 06:43:18 51°13.648 2°55.927 5.2 78 10.7 102140 95
2007-04-10 06:43:23 51°13.651 2°55.918 5.4 32 10.7 102140 94
2007-04-10 06:43:28 51°13.654 2°55.909 4.7 81 10.7 102140 94
2007-04-10 06:43:33 51°13.657 2°55.9 4.1 36 10.7 102140 94
2007-04-10 06:43:38 51°13.66 2°55.891 5 80 10.7 102140 94
2007-04-10 06:43:43 51°13.663 2°55.882 4.4 30 10.7 102140 94
2007-04-10 06:43:48 51°13.666 2°55.874 2.8 74 10.7 102140 94
2007-04-10 06:43:53 51°13.668 2°55.866 4.2 31 10.7 102140 94
2007-04-10 06:43:58 51°13.67 2°55.857 3.8 79 10.7 102140 94
2007-04-10 06:44:03 51°13.672 2°55.85 4.3 34 10.8 102140 95
2007-04-10 06:44:08 51°13.674 2°55.842 3.7 74 10.8 102140 95
2007-04-10 06:44:12 51°13.676 2°55.836 4.3 39 10.8 102140 95
2007-04-10 06:44:17 51°13.678 2°55.829 4.3 77 10.8 102140 95
2007-04-10 06:44:22 51°13.679 2°55.821 3.3 37 10.8 102140 94
2007-04-10 06:44:27 51°13.681 2°55.815 3.3 76 10.8 102140 94
2007-04-10 06:44:32 51°13.682 2°55.808 3.3 33 10.8 102140 94
2007-04-10 06:44:36 51°13.683 2°55.802 3.4 80 10.8 102140 94
2007-04-10 06:44:41 51°13.684 2°55.796 3.7 34 10.7 102150 94
2007-04-10 06:44:46 51°13.684 2°55.789 2.8 80 10.7 102150 94
2007-04-10 06:44:51 51°13.685 2°55.783 3.9 38 10.8 102140 94
2007-04-10 06:44:56 51°13.685 2°55.777 4 80 10.8 102140 94
2007-04-10 06:45:00 51°13.686 2°55.772 3.2 30 10.8 102150 94
2007-04-10 06:45:05 51°13.686 2°55.766 3.7 74 10.8 102150 94
2007-04-10 06:45:10 51°13.687 2°55.761 3.5 38 10.8 102150 94
2007-04-10 06:45:15 51°13.687 2°55.755 3.4 80 10.8 102150 94
2007-04-10 06:45:19 51°13.687 2°55.751 3.4 32 10.8 102150 94
2007-04-10 06:45:24 51°13.687 2°55.746 2.8 77 10.8 102150 94
2007-04-10 06:45:29 51°13.687 2°55.741 3.1 38 10.8 102150 94
2007-04-10 06:45:34 51°13.686 2°55.737 3.4 75 10.8 102140 94
2007-04-10 06:45:39 51°13.686 2°55.733 3.1 32 10.8 102140 94
2007-04-10 06:45:44 51°13.686 2°55.73 3.5 76 10.8 102140 94
2007-04-10 06:45:49 51°13.686 2°55.727 3.4 36 10.8 102140 94
2007-04-10 06:45:54 51°13.686 2°55.724 2.7 78 10.8 102150 94
2007-04-10 06:45:59 51°13.686 2°55.722 2.4 34 10.7 102150 94
2007-04-10 06:46:03 51°13.686 2°55.721 2.8 291 10.7 102150 94
2007-04-10 06:46:09 51°13.686 2°55.719 2.2 35 10.7 102140 94
2007-04-10 06:46:14 51°13.686 2°55.717 2.5 279 10.7 102140 94
2007-04-10 06:46:19 51°13.686 2°55.716 2.9 268 10.7 102140 94
2007-04-10 06:46:24 51°13.686 2°55.716 3 83 10.7 102140 94
2007-04-10 06:46:29 51°13.687 2°55.715 2.8 32 10.7 102140 94
2007-04-10 06:46:34 51°13.688 2°55.716 3 78 10.7 102140 94
2007-04-10 06:46:39 51°13.689 2°55.716 3 39 10.7 102140 94
2007-04-10 06:46:44 51°13.69 2°55.718 2.7 281 10.7 102140 94
2007-04-10 06:46:49 51°13.692 2°55.719 2 245 10.7 102140 94
2007-04-10 06:46:54 51°13.694 2°55.719 1.4 286 10.7 102140 94
2007-04-10 06:46:59 51°13.697 2°55.72 1.4 253 10.7 102140 94
2007-04-10 06:47:04 51°13.699 2°55.721 1.3 282 10.7 102140 94
2007-04-10 06:47:09 51°13.703 2°55.721 1.8 35 10.7 102140 94
2007-04-10 06:47:14 51°13.706 2°55.721 1.8 279 10.7 102140 94
2007-04-10 06:47:19 51°13.71 2°55.72 3.1 235 10.7 102140 94
2007-04-10 06:47:24 51°13.713 2°55.719 3.3 286 10.7 102140 94
2007-04-10 06:47:29 51°13.718 2°55.716 3.6 32 10.7 102140 94
2007-04-10 06:47:34 51°13.723 2°55.713 2.7 278 10.7 102140 94
2007-04-10 06:47:39 51°13.728 2°55.71 3.2 323 10.7 102140 94
2007-04-10 06:47:44 51°13.733 2°55.706 3.4 284 10.7 102140 94
2007-04-10 06:47:49 51°13.739 2°55.701 4.2 324 10.7 102140 94
2007-04-10 06:47:54 51°13.745 2°55.697 3.8 282 10.7 102140 94
2007-04-10 06:47:59 51°13.752 2°55.692 3.9 326 10.7 102140 94
2007-04-10 06:48:04 51°13.759 2°55.686 5.2 285 10.7 102140 94
2007-04-10 06:48:09 51°13.766 2°55.68 5.4 323 10.7 102140 94
2007-04-10 06:48:14 51°13.774 2°55.674 5.9 277 10.7 102140 94
2007-04-10 06:48:19 51°13.782 2°55.667 5.1 38 10.7 102140 94
2007-04-10 06:48:24 51°13.791 2°55.661 5 278 10.7 102140 94
2007-04-10 06:48:29 51°13.8 2°55.655 5.5 332 10.7 102130 93
2007-04-10 06:48:34 51°13.809 2°55.648 3.5 284 10.7 102130 93
2007-04-10 06:48:39 51°13.819 2°55.641 3.3 330 10.7 102130 93
2007-04-10 06:48:44 51°13.829 2°55.634 6.1 279 10.7 102140 93
2007-04-10 06:48:49 51°13.839 2°55.627 5 325 10.7 102140 93
2007-04-10 06:48:54 51°13.849 2°55.62 6 284 10.7 102140 93
2007-04-10 06:48:59 51°13.86 2°55.612 5.2 321 10.7 102140 93
2007-04-10 06:49:04 51°13.871 2°55.605 4.8 279 10.7 102140 93
2007-04-10 06:49:09 51°13.882 2°55.598 5.2 321 10.7 102140 93
2007-04-10 06:49:14 51°13.893 2°55.59 6 285 10.7 102140 93
2007-04-10 06:49:19 51°13.904 2°55.583 4.5 326 10.7 102140 93
2007-04-10 06:49:24 51°13.915 2°55.575 6 281 10.7 102140 93
2007-04-10 06:49:29 51°13.926 2°55.567 5.9 319 10.7 102140 93
2007-04-10 06:49:34 51°13.937 2°55.559 7.2 281 10.7 102140 93
2007-04-10 06:49:39 51°13.949 2°55.551 6.5 321 10.7 102140 93
2007-04-10 06:49:44 51°13.96 2°55.543 4.8 283 10.7 102140 93
2007-04-10 06:49:49 51°13.971 2°55.535 6.7 320 10.7 102140 93
2007-04-10 06:49:54 51°13.983 2°55.527 6.2 281 10.7 102140 93
2007-04-10 06:49:59 51°13.994 2°55.519 5.9 317 10.7 102140 93
2007-04-10 06:50:04 51°14.005 2°55.511 6.7 283 10.7 102140 93
2007-04-10 06:50:09 51°14.017 2°55.503 7.5 320 10.6 102130 93
2007-04-10 06:50:14 51°14.028 2°55.495 5.6 282 10.6 102130 93
2007-04-10 06:50:19 51°14.04 2°55.487 5.7 321 10.6 102130 93
2007-04-10 06:50:24 51°14.051 2°55.479 6.4 279 10.6 102130 93
2007-04-10 06:50:29 51°14.063 2°55.471 6 321 10.6 102140 93
2007-04-10 06:50:34 51°14.074 2°55.463 5.4 279 10.6 102140 93
2007-04-10 06:50:39 51°14.085 2°55.455 5.9 315 10.7 102140 93
2007-04-10 06:50:44 51°14.097 2°55.446 6.1 283 10.7 102140 93
2007-04-10 06:50:49 51°14.108 2°55.438 7 318 10.6 102140 93
2007-04-10 06:50:54 51°14.12 2°55.429 6.8 287 10.6 102140 93
2007-04-10 06:50:59 51°14.131 2°55.42 6.9 320 10.6 102140 93
2007-04-10 06:51:04 51°14.142 2°55.411 6.3 285 10.6 102140 93
2007-04-10 06:51:09 51°14.153 2°55.401 6.2 321 10.6 102140 93
2007-04-10 06:51:14 51°14.164 2°55.391 7.5 279 10.6 102140 93
2007-04-10 06:51:19 51°14.175 2°55.381 6.4 317 10.6 102130 93
2007-04-10 06:51:24 51°14.185 2°55.37 7.1 283 10.6 102130 93
2007-04-10 06:51:29 51°14.196 2°55.359 6.7 320 10.6 102140 93
2007-04-10 06:51:34 51°14.206 2°55.347 7.4 278 10.6 102140 93
2007-04-10 06:51:39 51°14.216 2°55.334 7 318 10.6 102140 93
2007-04-10 06:51:44 51°14.225 2°55.321 7.1 284 10.6 102140 93
2007-04-10 06:51:50 51°14.237 2°55.305 7.2 324 10.6 102140 93
2007-04-10 06:51:55 51°14.246 2°55.291 7.2 285 10.6 102140 93
2007-04-10 06:52:01 51°14.256 2°55.274 6.8 319 10.7 102140 93
2007-04-10 06:52:06 51°14.265 2°55.259 7.5 284 10.7 102140 93
2007-04-10 06:52:11 51°14.274 2°55.244 7.1 320 10.6 102140 93
2007-04-10 06:52:16 51°14.282 2°55.229 7.4 279 10.6 102140 93
2007-04-10 06:52:20 51°14.289 2°55.217 7.4 323 10.6 102140 93
2007-04-10 06:52:25 51°14.297 2°55.201 6.3 279 10.6 102140 93
2007-04-10 06:52:30 51°14.305 2°55.186 6.3 322 10.6 102140 93
2007-04-10 06:52:35 51°14.314 2°55.17 7.5 283 10.6 102140 93
2007-04-10 06:52:39 51°14.32 2°55.158 7.6 321 10.6 102140 93
2007-04-10 06:52:44 51°14.329 2°55.142 7.8 285 10.6 102140 93
2007-04-10 06:52:49 51°14.337 2°55.127 8.4 322 10.6 102140 93
2007-04-10 06:52:54 51°14.345 2°55.112 8.1 280 10.6 102140 93
2007-04-10 06:52:59 51°14.353 2°55.096 8.2 319 10.6 102140 93
2007-04-10 06:53:03 51°14.36 2°55.083 8.2 279 10.6 102140 93
2007-04-10 06:53:09 51°14.37 2°55.065 8.2 323 10.5 102140 93
2007-04-10 06:53:14 51°14.377 2°55.049 8.4 284 10.5 102140 93
2007-04-10 06:53:19 51°14.385 2°55.032 7.8 322 10.5 102140 93
2007-04-10 06:53:24 51°14.392 2°55.016 7.9 278 10.6 102130 93
2007-04-10 06:53:29 51°14.4 2°54.999 8.1 323 10.5 102140 93
2007-04-10 06:53:34 51°14.407 2°54.983 8.1 279 10.5 102140 93
2007-04-10 06:53:39 51°14.414 2°54.966 8.5 325 10.5 102130 93
2007-04-10 06:53:44 51°14.421 2°54.948 8.3 286 10.5 102130 93
2007-04-10 06:53:49 51°14.427 2°54.931 8.5 324 10.5 102130 93
2007-04-10 06:53:54 51°14.433 2°54.913 8.7 283 10.5 102130 93
2007-04-10 06:53:59 51°14.438 2°54.894 8.7 328 10.5 102130 93
2007-04-10 06:54:04 51°14.443 2°54.875 9.3 283 10.5 102130 93
2007-04-10 06:54:09 51°14.447 2°54.854 9 329 10.5 102130 93
2007-04-10 06:54:14 51°14.451 2°54.833 9.7 -999 10.5 102130 93
2007-04-10 06:54:19 51°14.454 2°54.81 9.1 332 10.5 102130 94
2007-04-10 06:54:24 51°14.456 2°54.787 10.1 286 10.5 102130 94
2007-04-10 06:54:29 51°14.457 2°54.763 9.8 333 10.5 102130 94
2007-04-10 06:54:34 51°14.457 2°54.738 11 286 10.5 102140 94
2007-04-10 06:54:39 51°14.456 2°54.712 10.6 333 10.5 102140 94
2007-04-10 06:54:44 51°14.455 2°54.685 11 280 10.5 102140 94
2007-04-10 06:54:49 51°14.453 2°54.659 11 334 10.5 102140 94
2007-04-10 06:54:54 51°14.45 2°54.632 10.8 279 10.5 102140 94
2007-04-10 06:54:59 51°14.445 2°54.605 11 337 10.5 102140 94
2007-04-10 06:55:04 51°14.44 2°54.578 10.6 282 10.5 102140 94
2007-04-10 06:55:09 51°14.434 2°54.552 10.5 336 10.5 102140 94
2007-04-10 06:55:14 51°14.428 2°54.525 10.6 280 10.4 102140 94
2007-04-10 06:55:19 51°14.421 2°54.499 10.7 338 10.4 102140 94
2007-04-10 06:55:23 51°14.416 2°54.477 10.9 285 10.4 102140 94
2007-04-10 06:55:29 51°14.407 2°54.446 10.8 336 10.4 102140 94
2007-04-10 06:55:34 51°14.4 2°54.419 10.8 283 10.4 102140 94
2007-04-10 06:55:39 51°14.393 2°54.393 10.5 335 10.4 102140 94
2007-04-10 06:55:44 51°14.385 2°54.367 10.5 285 10.4 102140 94
2007-04-10 06:55:49 51°14.378 2°54.341 10.7 337 10.4 102140 94
2007-04-10 06:55:54 51°14.37 2°54.315 10.9 283 10.4 102140 94
2007-04-10 06:55:59 51°14.362 2°54.29 10.7 338 10.4 102140 94
2007-04-10 06:56:04 51°14.354 2°54.264 10.8 286 10.4 102140 94
2007-04-10 06:56:09 51°14.346 2°54.237 10.5 337 10.4 102140 94
2007-04-10 06:56:14 51°14.338 2°54.211 10.5 286 10.4 102140 94
2007-04-10 06:56:19 51°14.33 2°54.186 10.8 338 10.4 102140 94
2007-04-10 06:56:24 51°14.322 2°54.161 10.6 283 10.4 102140 94
2007-04-10 06:56:29 51°14.313 2°54.135 10.5 338 10.4 102140 94
2007-04-10 06:56:34 51°14.305 2°54.11 10.9 283 10.4 102140 94
2007-04-10 06:56:39 51°14.296 2°54.084 10.4 337 10.4 102140 94
2007-04-10 06:56:44 51°14.287 2°54.059 10.6 279 10.4 102140 94
2007-04-10 06:56:49 51°14.278 2°54.034 10.3 339 10.4 102140 94
2007-04-10 06:56:54 51°14.27 2°54.009 10.4 282 10.4 102150 94
2007-04-10 06:56:59 51°14.261 2°53.983 10.4 338 10.4 102150 94
2007-04-10 06:57:04 51°14.253 2°53.958 10.3 282 10.4 102140 94
2007-04-10 06:57:09 51°14.244 2°53.933 10.5 338 10.4 102140 94
2007-04-10 06:57:14 51°14.236 2°53.908 10.5 338 10.4 102140 94
2007-04-10 06:57:19 51°14.227 2°53.883 10.2 339 10.4 102140 94
2007-04-10 06:57:24 51°14.218 2°53.858 10.4 280 10.4 102150 94
2007-04-10 06:57:29 51°14.21 2°53.833 10.1 336 10.4 102150 94
2007-04-10 06:57:34 51°14.201 2°53.808 10.3 282 10.4 102140 94
2007-04-10 06:57:39 51°14.192 2°53.784 10 338 10.4 102140 94
2007-04-10 06:57:44 51°14.184 2°53.759 10.9 277 10.4 102140 94
2007-04-10 06:57:49 51°14.175 2°53.734 10.2 337 10.4 102140 94
2007-04-10 06:57:54 51°14.167 2°53.709 10.2 282 10.4 102140 94
2007-04-10 06:57:59 51°14.158 2°53.685 10.5 337 10.4 102140 94
2007-04-10 06:58:04 51°14.149 2°53.66 10.2 281 10.4 102150 94
2007-04-10 06:58:09 51°14.14 2°53.635 10.4 338 10.4 102150 94
2007-04-10 06:58:14 51°14.132 2°53.61 10.1 338 10.4 102140 94
2007-04-10 06:58:19 51°14.123 2°53.586 10.6 337 10.4 102140 94
2007-04-10 06:58:24 51°14.115 2°53.561 9.9 279 10.4 102150 94
2007-04-10 06:58:29 51°14.106 2°53.537 9.9 337 10.4 102150 94
2007-04-10 06:58:34 51°14.098 2°53.512 10.1 285 10.4 102140 94
2007-04-10 06:58:39 51°14.09 2°53.487 10.2 337 10.4 102140 94
2007-04-10 06:58:44 51°14.081 2°53.463 10.2 278 10.4 102150 94
2007-04-10 06:58:49 51°14.073 2°53.438 10.2 337 10.4 102140 94
2007-04-10 06:58:54 51°14.064 2°53.414 10 283 10.4 102140 94
2007-04-10 06:58:59 51°14.056 2°53.389 10.2 337 10.4 102140 94
2007-04-10 06:59:04 51°14.047 2°53.365 10 277 10.4 102140 94
2007-04-10 06:59:09 51°14.038 2°53.34 9.7 337 10.4 102140 94
2007-04-10 06:59:14 51°14.03 2°53.315 9.8 279 10.4 102150 94
2007-04-10 06:59:19 51°14.021 2°53.29 10.2 337 10.4 102150 94
2007-04-10 06:59:24 51°14.013 2°53.266 9.9 282 10.3 102150 94
2007-04-10 06:59:29 51°14.004 2°53.241 10.2 337 10.3 102150 94
2007-04-10 06:59:34 51°13.996 2°53.216 10.1 285 10.3 102140 94
2007-04-10 06:59:39 51°13.987 2°53.192 9.8 337 10.3 102140 94
2007-04-10 06:59:44 51°13.979 2°53.167 10.3 286 10.3 102150 95
2007-04-10 06:59:49 51°13.969 2°53.143 10.4 338 10.3 102150 95
2007-04-10 06:59:54 51°13.961 2°53.117 10.1 277 10.4 102150 95
2007-04-10 06:59:59 51°13.952 2°53.093 10.5 338 10.4 102150 95
2007-04-10 07:00:04 51°13.944 2°53.068 10.1 286 10.3 102150 95
2007-04-10 07:00:09 51°13.935 2°53.044 10 337 10.3 102150 95
2007-04-10 07:00:14 51°13.927 2°53.019 10.3 338 10.3 102150 95
2007-04-10 07:00:19 51°13.918 2°52.994 10 338 10.3 102150 95
2007-04-10 07:00:24 51°13.91 2°52.969 10 281 10.3 102150 95
2007-04-10 07:00:29 51°13.901 2°52.945 10 337 10.3 102150 95
2007-04-10 07:00:34 51°13.893 2°52.92 9.7 281 10.3 102150 95
2007-04-10 07:00:39 51°13.884 2°52.895 10.1 337 10.3 102150 95
2007-04-10 07:00:44 51°13.876 2°52.871 10 285 10.3 102150 95
2007-04-10 07:00:49 51°13.867 2°52.846 9.9 336 10.3 102150 95
2007-04-10 07:00:54 51°13.859 2°52.821 10 285 10.3 102150 95
2007-04-10 07:00:59 51°13.85 2°52.796 9.7 337 10.3 102150 95
2007-04-10 07:01:04 51°13.842 2°52.772 10 280 10.3 102150 95
2007-04-10 07:01:09 51°13.833 2°52.747 9.8 336 10.3 102150 95
2007-04-10 07:01:14 51°13.825 2°52.722 10 283 10.3 102150 95
2007-04-10 07:01:19 51°13.816 2°52.698 10 338 10.3 102150 95
2007-04-10 07:01:23 51°13.809 2°52.677 9.9 281 10.3 102150 95
2007-04-10 07:01:29 51°13.799 2°52.648 10 338 10.3 102150 95
2007-04-10 07:01:34 51°13.791 2°52.623 9.9 284 10.3 102150 95
2007-04-10 07:01:39 51°13.782 2°52.599 9.9 337 10.3 102150 95
2007-04-10 07:01:44 51°13.773 2°52.573 9.6 280 10.3 102150 95
2007-04-10 07:01:49 51°13.764 2°52.549 10.3 338 10.3 102150 95
2007-04-10 07:01:54 51°13.756 2°52.524 10.1 281 10.3 102150 95
2007-04-10 07:01:59 51°13.747 2°52.5 10.1 337 10.3 102150 95
2007-04-10 07:02:04 51°13.739 2°52.475 10 285 10.3 102150 95
2007-04-10 07:02:09 51°13.73 2°52.45 9.7 337 10.3 102150 95
2007-04-10 07:02:14 51°13.721 2°52.425 10.3 338 10.3 102150 95
2007-04-10 07:02:19 51°13.713 2°52.401 9.9 338 10.3 102150 95
2007-04-10 07:02:24 51°13.704 2°52.376 10.2 281 10.3 102150 95
2007-04-10 07:02:29 51°13.696 2°52.351 10.1 338 10.3 102150 95
2007-04-10 07:02:34 51°13.687 2°52.326 9.7 279 10.3 102160 95
2007-04-10 07:02:39 51°13.679 2°52.302 9.8 337 10.3 102160 95
2007-04-10 07:02:44 51°13.67 2°52.277 10.7 283 10.3 102150 95
2007-04-10 07:02:49 51°13.662 2°52.252 10.4 337 10.3 102150 95
2007-04-10 07:02:54 51°13.653 2°52.228 9.8 286 10.3 102150 95
2007-04-10 07:02:59 51°13.644 2°52.203 10 337 10.3 102150 95
2007-04-10 07:03:04 51°13.636 2°52.178 9.6 286 10.3 102150 95
2007-04-10 07:03:09 51°13.627 2°52.153 10 337 10.3 102150 95
2007-04-10 07:03:14 51°13.619 2°52.128 10.2 339 10.3 102150 95
2007-04-10 07:03:19 51°13.61 2°52.104 10.1 338 10.3 102150 95
2007-04-10 07:03:24 51°13.602 2°52.079 10.1 285 10.3 102150 95
2007-04-10 07:03:29 51°13.593 2°52.055 10 337 10.3 102150 95
2007-04-10 07:03:34 51°13.584 2°52.031 10.1 283 10.3 102150 95
2007-04-10 07:03:39 51°13.576 2°52.006 10.1 337 10.3 102150 95
2007-04-10 07:03:44 51°13.567 2°51.982 10.4 280 10.3 102150 95
2007-04-10 07:03:49 51°13.559 2°51.957 9.9 338 10.3 102150 95
2007-04-10 07:03:54 51°13.55 2°51.933 10.1 282 10.3 102150 95
2007-04-10 07:03:59 51°13.541 2°51.908 10.3 337 10.3 102150 95
2007-04-10 07:04:04 51°13.533 2°51.883 9.8 279 10.3 102150 95
2007-04-10 07:04:09 51°13.524 2°51.859 10.1 339 10.3 102150 95
2007-04-10 07:04:14 51°13.516 2°51.834 10 340 10.3 102150 95
2007-04-10 07:04:19 51°13.507 2°51.81 10 338 10.3 102150 95
2007-04-10 07:04:24 51°13.499 2°51.785 9.9 282 10.3 102160 95
2007-04-10 07:04:29 51°13.49 2°51.761 9.5 339 10.3 102160 95
2007-04-10 07:04:34 51°13.482 2°51.736 10.2 284 10.3 102150 95
2007-04-10 07:04:39 51°13.473 2°51.712 10 340 10.3 102150 95
2007-04-10 07:04:44 51°13.465 2°51.687 9.7 279 10.3 102150 95
2007-04-10 07:04:49 51°13.456 2°51.663 9.7 339 10.3 102150 95
2007-04-10 07:04:54 51°13.448 2°51.638 9.7 283 10.3 102150 95
2007-04-10 07:04:59 51°13.439 2°51.613 9.9 339 10.3 102150 95
2007-04-10 07:05:04 51°13.431 2°51.589 9.5 278 10.3 102150 95
2007-04-10 07:05:09 51°13.422 2°51.564 9.9 338 10.3 102150 95
2007-04-10 07:05:14 51°13.414 2°51.54 9.9 286 10.3 102150 95
2007-04-10 07:05:19 51°13.405 2°51.515 9.7 340 10.3 102150 95
2007-04-10 07:05:24 51°13.397 2°51.491 10.1 280 10.3 102160 95
2007-04-10 07:05:29 51°13.388 2°51.466 9.8 339 10.3 102160 95
2007-04-10 07:05:34 51°13.38 2°51.441 10.2 282 10.3 102150 95
2007-04-10 07:05:39 51°13.371 2°51.417 9.7 339 10.3 102150 95
2007-04-10 07:05:44 51°13.363 2°51.392 10.3 281 10.3 102150 95
2007-04-10 07:05:49 51°13.354 2°51.367 10.1 340 10.3 102150 95
2007-04-10 07:05:54 51°13.346 2°51.342 10 284 10.3 102150 95
2007-04-10 07:05:59 51°13.338 2°51.318 9.9 340 10.3 102150 95
2007-04-10 07:06:04 51°13.329 2°51.293 9.9 280 10.3 102160 95
2007-04-10 07:06:09 51°13.32 2°51.269 10.1 340 10.3 102160 95
2007-04-10 07:06:14 51°13.312 2°51.244 9.8 339 10.3 102160 95
2007-04-10 07:06:19 51°13.303 2°51.219 10 340 10.3 102160 95
2007-04-10 07:06:24 51°13.295 2°51.194 9.6 284 10.3 102150 95
2007-04-10 07:06:29 51°13.286 2°51.17 9.7 339 10.3 102150 95
2007-04-10 07:06:34 51°13.278 2°51.145 9.7 286 10.3 102150 95
2007-04-10 07:06:39 51°13.269 2°51.12 10.2 340 10.3 102150 95
2007-04-10 07:06:44 51°13.261 2°51.095 9.7 280 10.3 102150 95
2007-04-10 07:06:49 51°13.252 2°51.071 10.2 340 10.3 102150 95
2007-04-10 07:06:54 51°13.244 2°51.046 9.9 279 10.3 102160 95
2007-04-10 07:06:59 51°13.235 2°51.021 10.4 340 10.3 102160 95
2007-04-10 07:07:04 51°13.227 2°50.997 10.2 283 10.3 102160 95
2007-04-10 07:07:09 51°13.218 2°50.972 10.2 338 10.3 102160 95
2007-04-10 07:07:14 51°13.209 2°50.947 10.1 285 10.3 102160 95
2007-04-10 07:07:19 51°13.201 2°50.922 10.1 338 10.3 102160 95
2007-04-10 07:07:24 51°13.192 2°50.897 10.2 286 10.3 102150 95
2007-04-10 07:07:29 51°13.184 2°50.873 10.2 340 10.3 102150 95
2007-04-10 07:07:34 51°13.175 2°50.848 9.8 285 10.3 102150 95
2007-04-10 07:07:39 51°13.166 2°50.823 10.2 339 10.3 102150 95
2007-04-10 07:07:44 51°13.158 2°50.798 10 281 10.3 102150 95
2007-04-10 07:07:49 51°13.149 2°50.773 9.7 339 10.3 102150 95
2007-04-10 07:07:54 51°13.141 2°50.748 9.9 283 10.3 102150 95
2007-04-10 07:07:59 51°13.132 2°50.723 9.8 340 10.3 102150 95
2007-04-10 07:08:04 51°13.123 2°50.698 10 281 10.3 102150 95
2007-04-10 07:08:09 51°13.114 2°50.673 9.9 339 10.3 102150 95
2007-04-10 07:08:14 51°13.106 2°50.648 9.8 339 10.3 102150 95
2007-04-10 07:08:19 51°13.097 2°50.624 9.7 338 10.3 102150 95
2007-04-10 07:08:24 51°13.088 2°50.599 10.1 278 10.4 102150 95
2007-04-10 07:08:29 51°13.079 2°50.574 9.7 339 10.4 102150 95
2007-04-10 07:08:34 51°13.071 2°50.549 9.8 279 10.4 102150 95
2007-04-10 07:08:39 51°13.062 2°50.524 9.7 338 10.4 102150 95
2007-04-10 07:08:44 51°13.054 2°50.499 9.9 282 10.3 102150 95
2007-04-10 07:08:49 51°13.045 2°50.474 9.9 338 10.3 102150 95
2007-04-10 07:08:54 51°13.036 2°50.449 9.9 281 10.3 102160 95
2007-04-10 07:08:59 51°13.028 2°50.424 10 339 10.3 102160 95
2007-04-10 07:09:04 51°13.019 2°50.399 9.5 281 10.3 102160 95
2007-04-10 07:09:09 51°13.01 2°50.374 9.7 340 10.3 102160 95
2007-04-10 07:09:14 51°13.001 2°50.349 9.4 339 10.3 102150 95
2007-04-10 07:09:19 51°12.993 2°50.324 9.7 338 10.3 102150 95
2007-04-10 07:09:24 51°12.984 2°50.3 10.1 283 10.3 102160 95
2007-04-10 07:09:29 51°12.975 2°50.275 9.5 338 10.3 102160 95
2007-04-10 07:09:34 51°12.966 2°50.25 9.6 283 10.3 102160 95
2007-04-10 07:09:39 51°12.957 2°50.225 9.5 338 10.3 102160 95
2007-04-10 07:09:44 51°12.949 2°50.2 9.9 284 10.3 102160 95
2007-04-10 07:09:49 51°12.94 2°50.175 9.5 337 10.3 102160 95
2007-04-10 07:09:54 51°12.931 2°50.15 9.6 282 10.3 102160 95
2007-04-10 07:09:59 51°12.922 2°50.126 9.9 337 10.3 102160 95
2007-04-10 07:10:04 51°12.914 2°50.1 9.7 283 10.4 102160 95
2007-04-10 07:10:09 51°12.905 2°50.075 9.5 337 10.4 102160 95
2007-04-10 07:10:14 51°12.896 2°50.051 9.7 281 10.4 102160 95
2007-04-10 07:10:19 51°12.887 2°50.026 9.7 337 10.4 102160 95
2007-04-10 07:10:24 51°12.879 2°50 9.8 283 10.3 102160 95
2007-04-10 07:10:29 51°12.87 2°49.976 9.8 338 10.3 102160 95
2007-04-10 07:10:34 51°12.862 2°49.95 9.7 281 10.4 102160 95
2007-04-10 07:10:39 51°12.853 2°49.926 9.6 338 10.4 102160 95
2007-04-10 07:10:44 51°12.844 2°49.901 9.8 278 10.3 102160 95
2007-04-10 07:10:49 51°12.835 2°49.875 9.4 338 10.3 102160 95
2007-04-10 07:10:54 51°12.826 2°49.851 9.8 283 10.3 102160 95
2007-04-10 07:10:59 51°12.818 2°49.825 10 337 10.3 102160 95
2007-04-10 07:11:04 51°12.809 2°49.8 9.8 281 10.4 102160 95
2007-04-10 07:11:09 51°12.801 2°49.775 9.9 337 10.4 102160 95
2007-04-10 07:11:14 51°12.792 2°49.75 9.5 337 10.4 102160 95
2007-04-10 07:11:19 51°12.783 2°49.725 9.2 338 10.3 102160 95
2007-04-10 07:11:24 51°12.774 2°49.7 9.7 286 10.3 102160 95
2007-04-10 07:11:29 51°12.766 2°49.675 9.6 337 10.3 102160 95
2007-04-10 07:11:34 51°12.757 2°49.65 10 281 10.3 102160 95
2007-04-10 07:11:39 51°12.748 2°49.625 9.6 338 10.3 102160 95
2007-04-10 07:11:44 51°12.74 2°49.6 9.5 285 10.3 102160 95
2007-04-10 07:11:49 51°12.731 2°49.575 10 338 10.3 102160 95
2007-04-10 07:11:54 51°12.723 2°49.549 9.7 284 10.4 102160 95
2007-04-10 07:11:59 51°12.714 2°49.524 9.8 338 10.4 102160 95
2007-04-10 07:12:04 51°12.705 2°49.499 9.9 284 10.3 102160 95
2007-04-10 07:12:09 51°12.696 2°49.474 10.1 339 10.3 102160 95
2007-04-10 07:12:14 51°12.688 2°49.449 9.8 281 10.4 102160 95
2007-04-10 07:12:19 51°12.679 2°49.424 10.2 339 10.4 102160 95
2007-04-10 07:12:24 51°12.67 2°49.399 9.7 279 10.4 102160 95
2007-04-10 07:12:29 51°12.662 2°49.374 10 338 10.4 102160 95
2007-04-10 07:12:34 51°12.653 2°49.349 9.5 279 10.4 102160 95
2007-04-10 07:12:39 51°12.645 2°49.323 9.5 337 10.4 102160 95
2007-04-10 07:12:44 51°12.636 2°49.298 9.8 280 10.4 102160 95
2007-04-10 07:12:49 51°12.627 2°49.273 9.7 338 10.4 102160 95
2007-04-10 07:12:54 51°12.619 2°49.248 9.8 285 10.4 102160 95
2007-04-10 07:12:59 51°12.61 2°49.223 9.8 338 10.4 102160 95
2007-04-10 07:13:04 51°12.602 2°49.197 9.8 285 10.4 102160 95
2007-04-10 07:13:09 51°12.592 2°49.173 9.8 337 10.4 102160 95
2007-04-10 07:13:14 51°12.584 2°49.147 10 338 10.4 102160 95
2007-04-10 07:13:19 51°12.575 2°49.122 10.1 337 10.4 102160 95
2007-04-10 07:13:24 51°12.567 2°49.097 9.7 278 10.4 102160 95
2007-04-10 07:13:29 51°12.558 2°49.071 10.2 337 10.4 102160 95
2007-04-10 07:13:34 51°12.55 2°49.046 9.5 278 10.4 102160 95
2007-04-10 07:13:39 51°12.541 2°49.021 9.7 337 10.4 102160 95
2007-04-10 07:13:44 51°12.532 2°48.996 9.7 279 10.3 102160 95
2007-04-10 07:13:49 51°12.523 2°48.971 9.5 337 10.3 102160 95
2007-04-10 07:13:54 51°12.515 2°48.945 10.4 279 10.4 102160 95
2007-04-10 07:13:59 51°12.506 2°48.92 10.1 338 10.4 102160 95
2007-04-10 07:14:04 51°12.498 2°48.895 10 281 10.4 102160 95
2007-04-10 07:14:09 51°12.489 2°48.87 9.8 338 10.4 102160 95
2007-04-10 07:14:14 51°12.48 2°48.844 10 283 10.4 102160 95
2007-04-10 07:14:19 51°12.471 2°48.819 9.7 338 10.4 102160 95
2007-04-10 07:14:24 51°12.463 2°48.794 9.7 282 10.4 102170 95
2007-04-10 07:14:29 51°12.454 2°48.769 9.8 337 10.4 102160 95
2007-04-10 07:14:34 51°12.446 2°48.743 9.8 280 10.4 102160 95
2007-04-10 07:14:39 51°12.437 2°48.718 9.6 338 10.4 102160 95
2007-04-10 07:14:44 51°12.428 2°48.692 9.5 282 10.3 102160 95
2007-04-10 07:14:49 51°12.419 2°48.667 9.6 338 10.3 102160 95
2007-04-10 07:14:54 51°12.411 2°48.642 10.1 280 10.3 102160 95
2007-04-10 07:14:59 51°12.402 2°48.617 9.6 337 10.3 102160 95
2007-04-10 07:15:04 51°12.393 2°48.592 10 280 10.4 102160 95
2007-04-10 07:15:09 51°12.385 2°48.566 9.9 337 10.4 102160 95
2007-04-10 07:15:14 51°12.376 2°48.541 10.1 280 10.3 102160 95
2007-04-10 07:15:19 51°12.368 2°48.516 9.8 338 10.3 102160 95
2007-04-10 07:15:24 51°12.359 2°48.491 9.9 280 10.3 102170 95
2007-04-10 07:15:29 51°12.35 2°48.465 9.8 337 10.3 102170 95
2007-04-10 07:15:34 51°12.341 2°48.441 9.9 282 10.4 102160 95
2007-04-10 07:15:39 51°12.333 2°48.415 9.7 337 10.4 102160 95
2007-04-10 07:15:43 51°12.325 2°48.395 9.7 283 10.3 102170 95
2007-04-10 07:15:49 51°12.315 2°48.365 9.6 337 10.3 102170 95
2007-04-10 07:15:54 51°12.306 2°48.339 10 281 10.3 102160 95
2007-04-10 07:15:59 51°12.298 2°48.314 9.9 337 10.3 102160 95
2007-04-10 07:16:04 51°12.289 2°48.289 9.5 285 10.3 102170 95
2007-04-10 07:16:09 51°12.281 2°48.263 9.6 336 10.3 102170 95
2007-04-10 07:16:14 51°12.272 2°48.238 9.5 283 10.3 102170 95
2007-04-10 07:16:19 51°12.263 2°48.213 9.8 339 10.3 102170 95
2007-04-10 07:16:24 51°12.255 2°48.187 9.6 284 10.3 102170 95
2007-04-10 07:16:29 51°12.246 2°48.162 10 338 10.3 102170 95
2007-04-10 07:16:34 51°12.237 2°48.137 10 279 10.3 102170 95
2007-04-10 07:16:39 51°12.228 2°48.111 9.9 337 10.3 102170 95
2007-04-10 07:16:44 51°12.22 2°48.086 9.8 285 10.3 102170 95
2007-04-10 07:16:49 51°12.211 2°48.06 9.8 337 10.3 102160 95
2007-04-10 07:16:54 51°12.202 2°48.035 9.9 284 10.3 102160 95
2007-04-10 07:16:59 51°12.194 2°48.009 9.5 336 10.3 102160 95
2007-04-10 07:17:04 51°12.186 2°47.983 9.8 277 10.3 102160 96
2007-04-10 07:17:09 51°12.178 2°47.957 10.4 336 10.3 102160 96
2007-04-10 07:17:14 51°12.171 2°47.93 9.9 287 10.3 102170 96
2007-04-10 07:17:19 51°12.163 2°47.904 10.5 337 10.3 102170 96
2007-04-10 07:17:24 51°12.157 2°47.876 9.9 284 10.3 102170 96
2007-04-10 07:17:29 51°12.15 2°47.849 10 337 10.3 102170 96
2007-04-10 07:17:34 51°12.145 2°47.822 10 278 10.3 102170 96
2007-04-10 07:17:39 51°12.138 2°47.794 10.2 338 10.3 102170 96
2007-04-10 07:17:44 51°12.134 2°47.766 9.7 277 10.4 102170 96
2007-04-10 07:17:49 51°12.127 2°47.739 10 336 10.4 102170 96
2007-04-10 07:17:54 51°12.123 2°47.711 10.1 276 10.3 102160 96
2007-04-10 07:17:59 51°12.117 2°47.683 9.9 336 10.3 102170 96
2007-04-10 07:18:04 51°12.112 2°47.655 10.2 280 10.3 102170 96
2007-04-10 07:18:09 51°12.106 2°47.627 10.2 335 10.3 102170 96
2007-04-10 07:18:14 51°12.101 2°47.599 10.3 286 10.4 102170 96
2007-04-10 07:18:19 51°12.096 2°47.571 10.1 338 10.4 102170 96
2007-04-10 07:18:24 51°12.091 2°47.543 9.9 284 10.4 102170 96
2007-04-10 07:18:29 51°12.085 2°47.516 10.2 337 10.4 102170 96
2007-04-10 07:18:34 51°12.08 2°47.488 10.1 283 10.3 102170 96
2007-04-10 07:18:39 51°12.074 2°47.46 10.2 337 10.3 102170 96
2007-04-10 07:18:44 51°12.069 2°47.432 9.8 282 10.4 102170 96
2007-04-10 07:18:49 51°12.063 2°47.404 10 338 10.4 102170 96
2007-04-10 07:18:54 51°12.058 2°47.376 10.1 279 10.4 102170 96
2007-04-10 07:18:59 51°12.052 2°47.349 10.2 337 10.4 102170 96
2007-04-10 07:19:04 51°12.047 2°47.321 10.2 278 10.3 102160 96
2007-04-10 07:19:09 51°12.042 2°47.293 10.5 337 10.3 102170 96
2007-04-10 07:19:14 51°12.037 2°47.265 10.6 286 10.3 102170 96
2007-04-10 07:19:19 51°12.032 2°47.237 10.3 336 10.3 102170 96
2007-04-10 07:19:24 51°12.027 2°47.209 10.7 286 10.3 102170 96
2007-04-10 07:19:29 51°12.023 2°47.18 10.6 339 10.3 102170 96
2007-04-10 07:19:34 51°12.018 2°47.152 10.1 279 10.3 102160 95
2007-04-10 07:19:39 51°12.013 2°47.124 10.5 338 10.3 102160 95
2007-04-10 07:19:44 51°12.008 2°47.096 10.3 286 10.3 102170 95
2007-04-10 07:19:49 51°12.003 2°47.068 10.2 336 10.3 102170 95
2007-04-10 07:19:54 51°11.998 2°47.04 10.2 280 10.3 102170 95
2007-04-10 07:19:59 51°11.993 2°47.012 10 335 10.3 102170 95
2007-04-10 07:20:04 51°11.988 2°46.983 10.2 280 10.3 102170 95
2007-04-10 07:20:09 51°11.984 2°46.955 10.8 336 10.3 102170 95
2007-04-10 07:20:14 51°11.98 2°46.927 10.5 338 10.3 102170 95
2007-04-10 07:20:19 51°11.975 2°46.898 10 337 10.3 102170 95
2007-04-10 07:20:24 51°11.971 2°46.87 10.4 279 10.3 102170 95
2007-04-10 07:20:29 51°11.967 2°46.842 10.4 336 10.3 102170 95
2007-04-10 07:20:34 51°11.963 2°46.813 10.3 286 10.3 102170 95
2007-04-10 07:20:39 51°11.958 2°46.785 10.3 338 10.3 102170 95
2007-04-10 07:20:44 51°11.954 2°46.757 10.1 281 10.3 102170 95
2007-04-10 07:20:49 51°11.95 2°46.728 9.9 337 10.3 102170 95
2007-04-10 07:20:54 51°11.946 2°46.7 10.9 283 10.3 102170 95
2007-04-10 07:20:59 51°11.941 2°46.672 10.3 337 10.3 102170 95
2007-04-10 07:21:04 51°11.937 2°46.643 9.9 282 10.3 102170 95
2007-04-10 07:21:09 51°11.933 2°46.615 9.9 338 10.3 102170 95
2007-04-10 07:21:14 51°11.929 2°46.587 10.5 279 10.3 102170 95
2007-04-10 07:21:19 51°11.925 2°46.559 10.4 338 10.3 102170 95
2007-04-10 07:21:24 51°11.92 2°46.53 10.5 277 10.3 102170 95
2007-04-10 07:21:29 51°11.916 2°46.502 10.7 339 10.3 102170 95
2007-04-10 07:21:34 51°11.912 2°46.474 10.5 278 10.3 102170 95
2007-04-10 07:21:39 51°11.908 2°46.446 10.6 338 10.3 102170 95
2007-04-10 07:21:44 51°11.904 2°46.417 10.6 286 10.3 102170 95
2007-04-10 07:21:49 51°11.9 2°46.389 10.4 339 10.3 102170 95
2007-04-10 07:21:54 51°11.896 2°46.361 10.5 279 10.3 102170 95
2007-04-10 07:21:59 51°11.892 2°46.332 10.5 340 10.3 102170 95
2007-04-10 07:22:03 51°11.888 2°46.31 10.3 286 10.3 102170 95
2007-04-10 07:22:09 51°11.883 2°46.276 10.8 338 10.3 102170 95
2007-04-10 07:22:14 51°11.879 2°46.248 10.6 283 10.3 102170 95
2007-04-10 07:22:19 51°11.875 2°46.22 10.7 337 10.3 102170 95
2007-04-10 07:22:24 51°11.871 2°46.191 10.3 284 10.3 102170 95
2007-04-10 07:22:29 51°11.866 2°46.163 10.8 338 10.3 102170 95
2007-04-10 07:22:34 51°11.862 2°46.135 10.4 280 10.4 102170 95
2007-04-10 07:22:39 51°11.858 2°46.107 10.5 338 10.4 102170 95
2007-04-10 07:22:44 51°11.854 2°46.079 10.4 280 10.4 102170 95
2007-04-10 07:22:49 51°11.85 2°46.05 10.1 337 10.4 102170 95
2007-04-10 07:22:54 51°11.846 2°46.022 10.2 282 10.3 102170 95
2007-04-10 07:22:59 51°11.842 2°45.994 10.6 337 10.3 102170 95
2007-04-10 07:23:04 51°11.839 2°45.965 10.3 279 10.4 102170 95
2007-04-10 07:23:09 51°11.835 2°45.936 10.1 335 10.4 102170 95
2007-04-10 07:23:14 51°11.832 2°45.908 10.9 283 10.4 102170 95
2007-04-10 07:23:19 51°11.829 2°45.879 10.5 337 10.4 102170 95
2007-04-10 07:23:24 51°11.825 2°45.851 10.3 282 10.4 102170 95
2007-04-10 07:23:29 51°11.822 2°45.822 10.5 337 10.4 102170 95
2007-04-10 07:23:34 51°11.819 2°45.794 10.5 284 10.4 102170 95
2007-04-10 07:23:39 51°11.815 2°45.765 11 337 10.4 102170 95
2007-04-10 07:23:44 51°11.812 2°45.737 10.3 280 10.4 102170 95
2007-04-10 07:23:49 51°11.808 2°45.708 10.1 337 10.4 102170 95
2007-04-10 07:23:54 51°11.805 2°45.68 10.2 281 10.4 102170 95
2007-04-10 07:23:59 51°11.801 2°45.651 10.5 336 10.4 102170 95
2007-04-10 07:24:04 51°11.798 2°45.623 10.1 281 10.4 102180 95
2007-04-10 07:24:09 51°11.794 2°45.594 10.3 338 10.4 102180 95
2007-04-10 07:24:14 51°11.791 2°45.566 10.2 281 10.4 102170 95
2007-04-10 07:24:19 51°11.787 2°45.537 10.2 335 10.4 102170 95
2007-04-10 07:24:24 51°11.784 2°45.508 10.4 285 10.4 102170 95
2007-04-10 07:24:29 51°11.78 2°45.48 10.4 336 10.4 102170 95
2007-04-10 07:24:34 51°11.777 2°45.451 9.6 281 10.4 102180 95
2007-04-10 07:24:39 51°11.773 2°45.422 10.4 336 10.4 102180 95
2007-04-10 07:24:44 51°11.77 2°45.394 9.9 285 10.4 102180 95
2007-04-10 07:24:49 51°11.766 2°45.365 10.4 335 10.4 102180 95
2007-04-10 07:24:54 51°11.762 2°45.336 9.8 278 10.4 102170 95
2007-04-10 07:24:59 51°11.759 2°45.308 10.6 336 10.4 102170 95
2007-04-10 07:25:04 51°11.755 2°45.279 10.4 281 10.4 102180 95
2007-04-10 07:25:09 51°11.752 2°45.25 10.1 335 10.4 102180 95
2007-04-10 07:25:14 51°11.748 2°45.221 10.5 278 10.4 102170 95
2007-04-10 07:25:19 51°11.745 2°45.192 10 335 10.4 102170 95
2007-04-10 07:25:24 51°11.742 2°45.164 10 279 10.4 102170 95
2007-04-10 07:25:29 51°11.738 2°45.135 10.8 335 10.4 102170 95
2007-04-10 07:25:34 51°11.734 2°45.106 10 280 10.4 102180 95
2007-04-10 07:25:39 51°11.731 2°45.077 10.3 335 10.4 102180 95
2007-04-10 07:25:44 51°11.728 2°45.048 10.4 281 10.4 102190 95
2007-04-10 07:25:49 51°11.724 2°45.02 10.1 334 10.4 102190 95
2007-04-10 07:25:54 51°11.721 2°44.991 10.2 281 10.4 102180 95
2007-04-10 07:25:59 51°11.717 2°44.962 10.2 335 10.4 102180 95
2007-04-10 07:26:04 51°11.714 2°44.933 10.4 282 10.4 102180 95
2007-04-10 07:26:09 51°11.71 2°44.904 10.7 336 10.4 102180 95
2007-04-10 07:26:14 51°11.706 2°44.875 10.4 282 10.4 102180 95
2007-04-10 07:26:19 51°11.703 2°44.846 10.8 334 10.4 102180 95
2007-04-10 07:26:24 51°11.699 2°44.817 11 278 10.4 102180 95
2007-04-10 07:26:29 51°11.696 2°44.789 11.1 335 10.4 102180 95
2007-04-10 07:26:34 51°11.693 2°44.759 10.3 281 10.4 102180 95
2007-04-10 07:26:39 51°11.689 2°44.73 10.4 336 10.4 102180 95
2007-04-10 07:26:44 51°11.686 2°44.702 10.7 282 10.4 102180 95
2007-04-10 07:26:49 51°11.682 2°44.673 10.6 335 10.4 102180 95
2007-04-10 07:26:54 51°11.679 2°44.644 10.6 284 10.4 102180 95
2007-04-10 07:26:59 51°11.675 2°44.615 10.7 336 10.4 102180 95
2007-04-10 07:27:04 51°11.672 2°44.586 10.5 279 10.4 102180 95
2007-04-10 07:27:09 51°11.668 2°44.557 10.3 335 10.4 102180 95
2007-04-10 07:27:14 51°11.665 2°44.528 10.2 334 10.4 102180 95
2007-04-10 07:27:19 51°11.661 2°44.499 10.7 335 10.4 102180 95
2007-04-10 07:27:24 51°11.657 2°44.47 10.4 285 10.4 102190 95
2007-04-10 07:27:29 51°11.654 2°44.441 10.3 334 10.4 102190 95
2007-04-10 07:27:34 51°11.65 2°44.412 10.6 280 10.4 102180 95
2007-04-10 07:27:39 51°11.647 2°44.383 10.7 335 10.4 102180 95
2007-04-10 07:27:44 51°11.643 2°44.354 10.7 285 10.4 102180 95
2007-04-10 07:27:49 51°11.64 2°44.325 10.7 335 10.4 102190 95
2007-04-10 07:27:54 51°11.636 2°44.296 10.1 282 10.4 102190 95
2007-04-10 07:27:59 51°11.633 2°44.267 10.7 336 10.4 102190 95
2007-04-10 07:28:04 51°11.63 2°44.238 10.3 280 10.4 102180 95
2007-04-10 07:28:09 51°11.626 2°44.209 10.6 336 10.4 102180 95
2007-04-10 07:28:14 51°11.623 2°44.18 10.7 286 10.4 102180 95
2007-04-10 07:28:19 51°11.619 2°44.151 10.6 335 10.4 102180 95
2007-04-10 07:28:24 51°11.616 2°44.122 10.8 282 10.4 102190 95
2007-04-10 07:28:29 51°11.612 2°44.093 10.5 335 10.4 102190 95
2007-04-10 07:28:34 51°11.609 2°44.063 10.6 282 10.4 102190 95
2007-04-10 07:28:39 51°11.605 2°44.034 10.6 335 10.4 102190 95
2007-04-10 07:28:44 51°11.602 2°44.005 10.9 285 10.4 102180 95
2007-04-10 07:28:49 51°11.598 2°43.976 10.5 334 10.4 102180 95
2007-04-10 07:28:54 51°11.595 2°43.947 11.1 286 10.4 102190 94
2007-04-10 07:28:59 51°11.592 2°43.918 10.7 334 10.4 102190 94
2007-04-10 07:29:04 51°11.589 2°43.889 10.7 282 10.4 102180 94
2007-04-10 07:29:09 51°11.585 2°43.86 10.3 334 10.4 102180 94
2007-04-10 07:29:14 51°11.582 2°43.83 10.6 334 10.4 102190 95
2007-04-10 07:29:19 51°11.578 2°43.801 10.6 334 10.4 102190 95
2007-04-10 07:29:24 51°11.575 2°43.772 10.8 284 10.4 102190 95
2007-04-10 07:29:29 51°11.571 2°43.743 10.7 335 10.4 102190 94
2007-04-10 07:29:34 51°11.567 2°43.714 10.8 280 10.4 102190 94
2007-04-10 07:29:39 51°11.564 2°43.685 10.5 335 10.4 102190 94
2007-04-10 07:29:44 51°11.561 2°43.656 10.4 280 10.4 102190 94
2007-04-10 07:29:49 51°11.558 2°43.627 10.6 334 10.4 102190 94
2007-04-10 07:29:54 51°11.554 2°43.598 10.2 280 10.4 102180 94
2007-04-10 07:29:59 51°11.551 2°43.569 10.2 333 10.4 102180 94
2007-04-10 07:30:04 51°11.547 2°43.54 10.7 282 10.4 102180 94
2007-04-10 07:30:09 51°11.544 2°43.511 10.6 334 10.4 102180 94
2007-04-10 07:30:14 51°11.539 2°43.482 10 -999 10.4 102180 94
2007-04-10 07:30:19 51°11.534 2°43.454 10.3 335 10.4 102180 94
2007-04-10 07:30:24 51°11.529 2°43.426 10.2 283 10.4 102190 94
2007-04-10 07:30:29 51°11.524 2°43.398 10.2 334 10.4 102190 94
2007-04-10 07:30:34 51°11.519 2°43.37 10.7 279 10.4 102190 94
2007-04-10 07:30:39 51°11.513 2°43.341 10.3 335 10.4 102190 94
2007-04-10 07:30:44 51°11.507 2°43.314 10.1 284 10.4 102180 94
2007-04-10 07:30:49 51°11.502 2°43.286 10.4 336 10.4 102180 94
2007-04-10 07:30:54 51°11.495 2°43.258 10.4 282 10.4 102180 94
2007-04-10 07:30:59 51°11.489 2°43.231 10.3 334 10.4 102180 94
2007-04-10 07:31:04 51°11.483 2°43.203 10.8 280 10.4 102190 94
2007-04-10 07:31:09 51°11.476 2°43.176 10 335 10.4 102190 94
2007-04-10 07:31:14 51°11.469 2°43.149 10.8 -999 10.4 102190 95
2007-04-10 07:31:19 51°11.462 2°43.121 10.9 335 10.4 102190 95
2007-04-10 07:31:24 51°11.455 2°43.095 10.4 281 10.4 102190 95
2007-04-10 07:31:29 51°11.447 2°43.068 10.7 336 10.4 102190 95
2007-04-10 07:31:34 51°11.44 2°43.041 10.6 280 10.4 102190 95
2007-04-10 07:31:39 51°11.432 2°43.015 10.7 335 10.4 102190 95
2007-04-10 07:31:44 51°11.424 2°42.988 10.5 279 10.4 102190 95
2007-04-10 07:31:49 51°11.416 2°42.961 10.8 335 10.4 102190 95
2007-04-10 07:31:54 51°11.409 2°42.935 10.3 280 10.4 102190 95
2007-04-10 07:31:59 51°11.401 2°42.908 10.6 335 10.4 102190 95
2007-04-10 07:32:04 51°11.393 2°42.881 10.9 284 10.4 102190 95
2007-04-10 07:32:09 51°11.385 2°42.855 11 336 10.4 102190 95
2007-04-10 07:32:14 51°11.378 2°42.828 10.6 333 10.4 102190 95
2007-04-10 07:32:19 51°11.37 2°42.801 10.4 333 10.4 102190 95
2007-04-10 07:32:24 51°11.362 2°42.775 10.7 284 10.4 102190 95
2007-04-10 07:32:29 51°11.354 2°42.748 10.4 334 10.4 102190 95
2007-04-10 07:32:34 51°11.346 2°42.723 9.7 277 10.4 102190 95
2007-04-10 07:32:39 51°11.338 2°42.698 9.9 334 10.4 102190 95
2007-04-10 07:32:44 51°11.33 2°42.674 10.1 281 10.4 102190 95
2007-04-10 07:32:49 51°11.322 2°42.65 9.8 333 10.4 102190 95
2007-04-10 07:32:54 51°11.314 2°42.627 9.5 280 10.4 102190 95
2007-04-10 07:32:59 51°11.307 2°42.606 9.2 334 10.4 102200 95
2007-04-10 07:33:04 51°11.301 2°42.586 8.7 285 10.4 102200 95
2007-04-10 07:33:09 51°11.294 2°42.567 8.8 336 10.4 102200 95
2007-04-10 07:33:14 51°11.288 2°42.549 8.5 283 10.4 102200 95
2007-04-10 07:33:19 51°11.282 2°42.532 8.2 335 10.4 102200 95
2007-04-10 07:33:24 51°11.276 2°42.515 7.8 278 10.4 102200 95
2007-04-10 07:33:29 51°11.271 2°42.5 7.5 333 10.4 102200 95
2007-04-10 07:33:34 51°11.266 2°42.485 7.9 283 10.4 102200 95
2007-04-10 07:33:39 51°11.261 2°42.471 7.3 334 10.4 102200 95
2007-04-10 07:33:44 51°11.256 2°42.457 7.2 281 10.4 102200 95
2007-04-10 07:33:49 51°11.251 2°42.444 6.9 335 10.4 102200 95
2007-04-10 07:33:54 51°11.247 2°42.431 7 284 10.4 102200 95
2007-04-10 07:33:59 51°11.242 2°42.419 6.9 335 10.4 102200 95
2007-04-10 07:34:04 51°11.238 2°42.408 6.9 277 10.4 102200 95
2007-04-10 07:34:09 51°11.233 2°42.396 6.2 332 10.4 102200 95
2007-04-10 07:34:14 51°11.23 2°42.386 6.6 279 10.4 102200 95
2007-04-10 07:34:19 51°11.226 2°42.375 6.6 334 10.4 102200 95
2007-04-10 07:34:24 51°11.222 2°42.365 6.3 286 10.4 102210 95
2007-04-10 07:34:29 51°11.218 2°42.355 6.5 336 10.4 102210 95
2007-04-10 07:34:34 51°11.215 2°42.345 6.4 283 10.4 102210 95
2007-04-10 07:34:39 51°11.211 2°42.336 6.4 334 10.4 102210 95
2007-04-10 07:34:44 51°11.208 2°42.326 6.2 278 10.4 102210 95
2007-04-10 07:34:49 51°11.205 2°42.317 6.1 335 10.4 102210 95
2007-04-10 07:34:54 51°11.202 2°42.308 6.2 279 10.4 102210 95
2007-04-10 07:34:59 51°11.199 2°42.3 6.1 334 10.4 102210 95
2007-04-10 07:35:04 51°11.197 2°42.291 6 282 10.4 102210 95
2007-04-10 07:35:09 51°11.194 2°42.283 6 332 10.4 102210 95
2007-04-10 07:35:14 51°11.191 2°42.274 6 284 10.4 102210 95
2007-04-10 07:35:19 51°11.188 2°42.266 5.8 335 10.4 102210 95
2007-04-10 07:35:24 51°11.186 2°42.258 5.7 279 10.4 102210 95
2007-04-10 07:35:29 51°11.183 2°42.25 5.7 334 10.4 102210 95
2007-04-10 07:35:34 51°11.181 2°42.242 5.6 279 10.4 102200 95
2007-04-10 07:35:39 51°11.178 2°42.235 5.7 335 10.4 102200 95
2007-04-10 07:35:43 51°11.177 2°42.229 5.6 284 10.4 102210 95
2007-04-10 07:35:49 51°11.173 2°42.22 6.2 338 10.4 102210 95
2007-04-10 07:35:54 51°11.171 2°42.213 5.7 285 10.4 102210 95
2007-04-10 07:35:59 51°11.168 2°42.207 5.3 338 10.4 102210 95
2007-04-10 07:36:04 51°11.166 2°42.2 5.6 282 10.4 102210 95
2007-04-10 07:36:09 51°11.163 2°42.194 5.5 340 10.4 102210 95
2007-04-10 07:36:14 51°11.16 2°42.189 5.6 285 10.4 102210 95
2007-04-10 07:36:19 51°11.157 2°42.184 5.7 343 10.4 102200 95
2007-04-10 07:36:24 51°11.154 2°42.179 5.6 283 10.4 102200 95
2007-04-10 07:36:29 51°11.151 2°42.174 5.9 347 10.4 102210 95
2007-04-10 07:36:34 51°11.148 2°42.169 5.3 285 10.4 102210 95
2007-04-10 07:36:39 51°11.145 2°42.164 5.2 344 10.4 102210 95
2007-04-10 07:36:44 51°11.141 2°42.16 5.3 279 10.4 102210 95
2007-04-10 07:36:49 51°11.138 2°42.155 5.1 344 10.4 102210 95
2007-04-10 07:36:54 51°11.135 2°42.151 5.1 280 10.4 102210 95
2007-04-10 07:36:59 51°11.132 2°42.146 5.2 342 10.4 102210 95
2007-04-10 07:37:04 51°11.129 2°42.141 5.1 280 10.4 102210 95
2007-04-10 07:37:09 51°11.127 2°42.136 5.1 341 10.4 102210 95
2007-04-10 07:37:14 51°11.124 2°42.132 5 284 10.4 102210 95
2007-04-10 07:37:19 51°11.121 2°42.127 5.6 340 10.4 102210 95
2007-04-10 07:37:24 51°11.119 2°42.123 5.2 280 10.4 102210 95
2007-04-10 07:37:30 51°11.116 2°42.117 5.2 339 10.4 102210 95
2007-04-10 07:37:34 51°11.115 2°42.113 5.1 283 10.4 102210 95
2007-04-10 07:37:39 51°11.113 2°42.108 4.5 335 10.4 102210 95
2007-04-10 07:37:44 51°11.111 2°42.104 4.6 280 10.4 102210 95
2007-04-10 07:37:49 51°11.109 2°42.1 5.5 340 10.4 102210 95
2007-04-10 07:37:54 51°11.108 2°42.095 5 284 10.4 102210 95
2007-04-10 07:37:59 51°11.106 2°42.091 5.1 337 10.4 102210 95
2007-04-10 07:38:04 51°11.105 2°42.087 4.9 284 10.4 102210 95
2007-04-10 07:38:09 51°11.103 2°42.083 4.8 337 10.4 102210 95
2007-04-10 07:38:14 51°11.102 2°42.079 4.5 283 10.4 102220 95
2007-04-10 07:38:19 51°11.101 2°42.075 4.2 336 10.4 102220 95
2007-04-10 07:38:24 51°11.1 2°42.072 4.4 279 10.4 102210 95
2007-04-10 07:38:29 51°11.099 2°42.069 4.2 335 10.4 102210 95
2007-04-10 07:38:34 51°11.098 2°42.066 4.1 280 10.4 102210 95
2007-04-10 07:38:39 51°11.098 2°42.064 4.1 337 10.4 102210 95
2007-04-10 07:38:44 51°11.097 2°42.063 4.1 285 10.4 102210 95
2007-04-10 07:38:49 51°11.097 2°42.062 3.8 337 10.4 102210 95
2007-04-10 07:38:54 51°11.097 2°42.061 3.9 285 10.4 102210 95
2007-04-10 07:38:59 51°11.097 2°42.06 3.9 335 10.4 102210 95
2007-04-10 07:39:04 51°11.097 2°42.059 3.8 285 10.4 102210 95
2007-04-10 07:39:09 51°11.096 2°42.058 4 335 10.4 102210 95
2007-04-10 07:39:14 51°11.096 2°42.057 4 285 10.4 102210 95
2007-04-10 07:39:19 51°11.096 2°42.057 3.7 337 10.4 102210 95
2007-04-10 07:39:24 51°11.096 2°42.056 4.1 284 10.4 102210 95
2007-04-10 07:39:29 51°11.096 2°42.055 4.2 337 10.5 102210 95
2007-04-10 07:39:34 51°11.096 2°42.054 4.1 279 10.5 102210 95
2007-04-10 07:39:39 51°11.096 2°42.053 3.7 335 10.5 102210 95
2007-04-10 07:39:44 51°11.096 2°42.053 3.6 283 10.4 102210 95
2007-04-10 07:39:49 51°11.095 2°42.052 4.3 337 10.5 102210 95
2007-04-10 07:39:54 51°11.095 2°42.051 4.1 284 10.5 102210 95
2007-04-10 07:39:59 51°11.095 2°42.051 3.9 335 10.5 102210 95
2007-04-10 07:40:04 51°11.095 2°42.05 3.9 285 10.4 102210 95
2007-04-10 07:40:09 51°11.095 2°42.049 3.8 333 10.4 102210 95
2007-04-10 07:40:14 51°11.095 2°42.049 4.1 281 10.5 102210 95
2007-04-10 07:40:19 51°11.095 2°42.048 4 336 10.5 102210 95
2007-04-10 07:40:24 51°11.095 2°42.047 3.7 284 10.5 102210 95
2007-04-10 07:40:29 51°11.094 2°42.047 3.6 336 10.5 102210 95
2007-04-10 07:40:34 51°11.094 2°42.046 4.4 284 10.5 102210 95
2007-04-10 07:40:39 51°11.094 2°42.046 4.1 338 10.5 102210 95
2007-04-10 07:40:44 51°11.094 2°42.045 4.2 281 10.5 102210 95
2007-04-10 07:40:49 51°11.094 2°42.045 4.4 335 10.5 102210 95
2007-04-10 07:40:54 51°11.094 2°42.044 4 285 10.5 102210 95
2007-04-10 07:40:59 51°11.094 2°42.044 4 338 10.5 102210 95
2007-04-10 07:41:04 51°11.094 2°42.043 4 279 10.5 102210 95
2007-04-10 07:41:09 51°11.094 2°42.043 4 336 10.5 102210 95
2007-04-10 07:41:14 51°11.094 2°42.042 4 278 10.5 102210 95
2007-04-10 07:41:19 51°11.094 2°42.042 3.8 337 10.5 102210 95
2007-04-10 07:41:24 51°11.094 2°42.042 3.7 281 10.5 102210 95
2007-04-10 07:41:29 51°11.093 2°42.041 3.9 340 10.5 102210 95
2007-04-10 07:41:34 51°11.094 2°42.041 4.1 281 10.5 102220 95
2007-04-10 07:41:39 51°11.093 2°42.041 4 340 10.5 102220 95
2007-04-10 07:41:44 51°11.093 2°42.04 4 280 10.5 102220 95
2007-04-10 07:41:49 51°11.092 2°42.04 4.5 339 10.5 102220 95
2007-04-10 07:41:54 51°11.092 2°42.04 4.4 280 10.5 102220 95
2007-04-10 07:41:59 51°11.092 2°42.04 4.1 340 10.5 102220 95
2007-04-10 07:42:03 51°11.092 2°42.039 4 286 10.5 102220 95
2007-04-10 07:42:09 51°11.092 2°42.039 3.7 342 10.5 102220 95
2007-04-10 07:42:14 51°11.092 2°42.039 3.9 279 10.5 102220 95
2007-04-10 07:42:19 51°11.092 2°42.039 4.1 342 10.5 102220 95
2007-04-10 07:42:24 51°11.092 2°42.039 4 279 10.5 102220 95
2007-04-10 07:42:29 51°11.092 2°42.039 4.2 344 10.5 102220 95
2007-04-10 07:42:34 51°11.091 2°42.038 4.3 279 10.5 102220 95
2007-04-10 07:42:39 51°11.091 2°42.038 4.3 344 10.5 102220 95
2007-04-10 07:42:44 51°11.091 2°42.038 4 285 10.5 102220 95
2007-04-10 07:42:49 51°11.091 2°42.038 4.3 344 10.5 102220 95
2007-04-10 07:42:54 51°11.091 2°42.038 4 284 10.5 102210 95
2007-04-10 07:42:59 51°11.091 2°42.038 4.3 346 10.4 102210 95
2007-04-10 07:43:04 51°11.091 2°42.038 3.9 346 10.4 102210 95
2007-04-10 07:43:09 51°11.091 2°42.038 3.9 349 10.4 102210 95
2007-04-10 07:43:14 51°11.091 2°42.038 4.1 282 10.4 102220 95
2007-04-10 07:43:19 51°11.091 2°42.038 4 346 10.4 102220 95
2007-04-10 07:43:24 51°11.091 2°42.038 4.2 347 10.4 102220 95
2007-04-10 07:43:29 51°11.091 2°42.038 3.9 349 10.4 102220 95
2007-04-10 07:43:34 51°11.091 2°42.038 3.7 279 10.4 102220 95
2007-04-10 07:43:39 51°11.091 2°42.038 4 348 10.4 102220 95
2007-04-10 07:43:44 51°11.091 2°42.038 4.4 280 10.4 102220 95
2007-04-10 07:43:49 51°11.09 2°42.039 4.1 349 10.4 102220 95
2007-04-10 07:43:54 51°11.09 2°42.039 4.2 278 10.4 102220 95
2007-04-10 07:43:59 51°11.09 2°42.039 4.2 349 10.4 102220 95
2007-04-10 07:44:04 51°11.09 2°42.039 3.6 349 10.4 102220 95
2007-04-10 07:44:09 51°11.09 2°42.039 4.1 350 10.4 102220 95
2007-04-10 07:44:14 51°11.09 2°42.039 3.8 353 10.4 102220 95
2007-04-10 07:44:19 51°11.09 2°42.04 3.9 352 10.4 102220 95
2007-04-10 07:44:24 51°11.09 2°42.04 3.7 353 10.4 102220 95
2007-04-10 07:44:29 51°11.09 2°42.04 3.7 354 10.4 102220 95
2007-04-10 07:44:34 51°11.09 2°42.04 4 353 10.4 102220 95
2007-04-10 07:44:39 51°11.09 2°42.04 3.9 356 10.3 102220 95
2007-04-10 07:44:44 51°11.09 2°42.041 4.3 356 10.3 102220 95
2007-04-10 07:44:49 51°11.09 2°42.041 4.2 354 10.3 102220 95
2007-04-10 07:44:54 51°11.09 2°42.041 4.1 358 10.4 102220 95
2007-04-10 07:44:59 51°11.09 2°42.041 4.1 356 10.3 102220 95
2007-04-10 07:45:04 51°11.09 2°42.042 4.4 -999 10.3 102220 95
2007-04-10 07:45:09 51°11.09 2°42.042 4 1 10.3 102220 95
2007-04-10 07:45:14 51°11.09 2°42.042 4.1 358 10.3 102220 95
2007-04-10 07:45:19 51°11.09 2°42.043 4.2 360 10.3 102220 95
2007-04-10 07:45:24 51°11.09 2°42.043 4.1 -999 10.3 102220 95
2007-04-10 07:45:29 51°11.09 2°42.043 4.5 1 10.3 102220 95
2007-04-10 07:45:34 51°11.09 2°42.044 4.1 358 10.3 102220 95
2007-04-10 07:45:39 51°11.09 2°42.044 4 359 10.3 102220 95
2007-04-10 07:45:44 51°11.089 2°42.044 5.1 359 10.3 102220 95
2007-04-10 07:45:49 51°11.089 2°42.043 4.6 358 10.3 102220 95
2007-04-10 07:45:54 51°11.088 2°42.042 4.8 355 10.3 102220 95
2007-04-10 07:45:59 51°11.086 2°42.04 4.7 358 10.3 102220 95
2007-04-10 07:46:04 51°11.084 2°42.039 4.8 357 10.3 102220 95
2007-04-10 07:46:09 51°11.082 2°42.036 4.8 355 10.3 102220 95
2007-04-10 07:46:14 51°11.079 2°42.033 5.4 353 10.3 102220 95
2007-04-10 07:46:19 51°11.074 2°42.029 5.7 352 10.3 102220 95
2007-04-10 07:46:24 51°11.069 2°42.023 6.2 282 10.3 102220 95
2007-04-10 07:46:29 51°11.063 2°42.017 6.2 347 10.2 102220 95
2007-04-10 07:46:34 51°11.056 2°42.009 7.4 279 10.2 102220 95
2007-04-10 07:46:39 51°11.048 2°42 7.9 347 10.2 102220 95
2007-04-10 07:46:44 51°11.04 2°41.989 7.9 278 10.3 102220 95
2007-04-10 07:46:49 51°11.031 2°41.977 8.5 341 10.3 102220 95
2007-04-10 07:46:54 51°11.021 2°41.962 8.8 279 10.2 102210 95
2007-04-10 07:46:59 51°11.011 2°41.946 9 339 10.2 102210 95
2007-04-10 07:47:04 51°11 2°41.928 10 278 10.2 102210 95
2007-04-10 07:47:09 51°10.99 2°41.908 9.9 339 10.3 102210 95
2007-04-10 07:47:14 51°10.98 2°41.887 9.8 279 10.3 102210 95
2007-04-10 07:47:19 51°10.97 2°41.865 9.9 336 10.3 102210 95
2007-04-10 07:47:24 51°10.96 2°41.841 10.5 281 10.3 102210 95
2007-04-10 07:47:29 51°10.951 2°41.817 10.6 334 10.3 102210 96
2007-04-10 07:47:34 51°10.941 2°41.792 11.2 280 10.3 102210 96
2007-04-10 07:47:39 51°10.934 2°41.765 10.9 335 10.3 102210 96
2007-04-10 07:47:44 51°10.926 2°41.739 10.6 281 10.3 102210 96
2007-04-10 07:47:49 51°10.919 2°41.711 11.1 336 10.3 102210 96
2007-04-10 07:47:54 51°10.912 2°41.684 11.2 286 10.3 102210 96
2007-04-10 07:47:59 51°10.906 2°41.656 11.1 333 10.3 102210 96
2007-04-10 07:48:04 51°10.9 2°41.628 11.2 281 10.3 102210 96
2007-04-10 07:48:09 51°10.893 2°41.599 11.2 333 10.3 102210 96
2007-04-10 07:48:14 51°10.888 2°41.57 11.4 280 10.3 102210 96
2007-04-10 07:48:19 51°10.883 2°41.541 11.3 332 10.3 102210 96
2007-04-10 07:48:24 51°10.878 2°41.512 11.1 281 10.3 102200 96
2007-04-10 07:48:29 51°10.874 2°41.483 11.2 331 10.3 102200 96
2007-04-10 07:48:34 51°10.87 2°41.454 11.2 283 10.3 102210 96
2007-04-10 07:48:39 51°10.866 2°41.424 11.1 331 10.3 102210 96
2007-04-10 07:48:44 51°10.862 2°41.395 10.9 286 10.3 102200 96
2007-04-10 07:48:49 51°10.858 2°41.365 10.9 331 10.3 102210 96
2007-04-10 07:48:54 51°10.854 2°41.336 11 280 10.3 102210 96
2007-04-10 07:48:59 51°10.849 2°41.306 11.1 331 10.3 102210 96
2007-04-10 07:49:03 51°10.846 2°41.283 11.1 278 10.3 102210 96
2007-04-10 07:49:09 51°10.841 2°41.247 10.8 331 10.3 102210 96
2007-04-10 07:49:14 51°10.837 2°41.218 10.9 280 10.3 102210 96
2007-04-10 07:49:19 51°10.833 2°41.188 11.2 330 10.3 102210 96
2007-04-10 07:49:24 51°10.829 2°41.159 12 281 10.4 102200 96
2007-04-10 07:49:29 51°10.825 2°41.129 10.9 331 10.4 102200 96
2007-04-10 07:49:34 51°10.821 2°41.1 11 282 10.4 102210 96
2007-04-10 07:49:39 51°10.816 2°41.071 10.9 330 10.3 102210 96
2007-04-10 07:49:44 51°10.812 2°41.041 11 280 10.3 102210 96
2007-04-10 07:49:49 51°10.808 2°41.012 11 330 10.3 102210 96
2007-04-10 07:49:54 51°10.803 2°40.982 11.7 278 10.3 102220 96
2007-04-10 07:49:59 51°10.799 2°40.953 11 332 10.4 102210 96
2007-04-10 07:50:04 51°10.795 2°40.924 11.4 283 10.4 102210 96
2007-04-10 07:50:09 51°10.79 2°40.895 11.6 332 10.4 102210 96
2007-04-10 07:50:14 51°10.785 2°40.866 11.1 281 10.4 102220 96
2007-04-10 07:50:19 51°10.781 2°40.837 12 332 10.4 102220 96
2007-04-10 07:50:24 51°10.776 2°40.808 11.3 286 10.4 102210 96
2007-04-10 07:50:29 51°10.772 2°40.779 11.5 330 10.4 102210 96
2007-04-10 07:50:34 51°10.767 2°40.75 11 284 10.4 102210 96
2007-04-10 07:50:39 51°10.763 2°40.721 10.9 330 10.4 102210 96
2007-04-10 07:50:44 51°10.758 2°40.692 11.7 283 10.4 102200 96
2007-04-10 07:50:49 51°10.754 2°40.663 11 332 10.4 102210 96
2007-04-10 07:50:54 51°10.75 2°40.634 11.1 283 10.4 102210 96
2007-04-10 07:50:59 51°10.746 2°40.605 11.6 331 10.4 102210 96
2007-04-10 07:51:04 51°10.742 2°40.575 11.3 283 10.4 102210 96
2007-04-10 07:51:09 51°10.738 2°40.546 11.7 331 10.4 102210 96
2007-04-10 07:51:14 51°10.734 2°40.517 11.1 282 10.4 102210 96
2007-04-10 07:51:19 51°10.73 2°40.488 11.1 330 10.4 102210 96
2007-04-10 07:51:24 51°10.726 2°40.459 11.7 282 10.4 102210 96
2007-04-10 07:51:29 51°10.722 2°40.43 11.3 330 10.4 102210 96
2007-04-10 07:51:34 51°10.717 2°40.401 11.4 278 10.4 102210 96
2007-04-10 07:51:39 51°10.713 2°40.371 11.7 331 10.4 102210 96
2007-04-10 07:51:44 51°10.709 2°40.342 11.4 281 10.4 102210 96
2007-04-10 07:51:49 51°10.705 2°40.313 10.8 330 10.4 102210 96
2007-04-10 07:51:54 51°10.701 2°40.284 10.9 282 10.4 102210 96
2007-04-10 07:51:59 51°10.696 2°40.255 11.9 331 10.4 102210 96
2007-04-10 07:52:04 51°10.692 2°40.226 11.2 283 10.4 102210 96
2007-04-10 07:52:09 51°10.688 2°40.197 11.1 329 10.4 102210 96
2007-04-10 07:52:14 51°10.684 2°40.168 11.2 280 10.4 102210 96
2007-04-10 07:52:19 51°10.68 2°40.139 11.3 331 10.4 102210 96
2007-04-10 07:52:24 51°10.676 2°40.11 10.9 282 10.4 102210 96
2007-04-10 07:52:29 51°10.672 2°40.08 11.4 330 10.4 102210 96
2007-04-10 07:52:34 51°10.667 2°40.051 11.1 277 10.4 102220 96
2007-04-10 07:52:39 51°10.663 2°40.022 11.3 331 10.4 102220 96
2007-04-10 07:52:44 51°10.659 2°39.993 11.4 282 10.4 102210 96
2007-04-10 07:52:49 51°10.655 2°39.964 11.3 329 10.4 102210 96
2007-04-10 07:52:54 51°10.651 2°39.934 11.2 286 10.4 102220 96
2007-04-10 07:52:59 51°10.647 2°39.905 11.8 330 10.4 102220 96
2007-04-10 07:53:04 51°10.642 2°39.875 11.1 284 10.4 102210 96
2007-04-10 07:53:09 51°10.638 2°39.846 11.5 331 10.4 102220 96
2007-04-10 07:53:14 51°10.634 2°39.817 11.5 281 10.4 102220 96
2007-04-10 07:53:19 51°10.63 2°39.788 11.3 332 10.4 102220 96
2007-04-10 07:53:24 51°10.625 2°39.759 11.4 281 10.4 102220 96
2007-04-10 07:53:29 51°10.621 2°39.729 11.2 331 10.4 102220 96
2007-04-10 07:53:34 51°10.617 2°39.7 11.3 284 10.4 102220 96
2007-04-10 07:53:39 51°10.612 2°39.671 11.3 331 10.4 102220 96
2007-04-10 07:53:44 51°10.608 2°39.642 10.8 282 10.4 102210 96
2007-04-10 07:53:49 51°10.604 2°39.613 10.8 331 10.4 102210 96
2007-04-10 07:53:54 51°10.6 2°39.584 11.4 279 10.4 102210 96
2007-04-10 07:53:59 51°10.596 2°39.554 10.8 331 10.4 102220 96
2007-04-10 07:54:04 51°10.591 2°39.525 11 282 10.4 102220 96
2007-04-10 07:54:09 51°10.587 2°39.496 10.8 331 10.4 102220 96
2007-04-10 07:54:14 51°10.583 2°39.467 11.2 332 10.4 102220 96
2007-04-10 07:54:19 51°10.578 2°39.438 10.7 331 10.4 102220 96
2007-04-10 07:54:24 51°10.575 2°39.409 11.5 277 10.4 102220 96
2007-04-10 07:54:29 51°10.571 2°39.379 11.3 332 10.4 102220 96
2007-04-10 07:54:34 51°10.568 2°39.35 11.3 280 10.4 102210 96
2007-04-10 07:54:39 51°10.564 2°39.321 11.4 332 10.4 102220 96
2007-04-10 07:54:44 51°10.561 2°39.291 11.5 281 10.4 102220 96
2007-04-10 07:54:49 51°10.558 2°39.262 11.3 331 10.4 102220 96
2007-04-10 07:54:54 51°10.554 2°39.232 11.6 281 10.4 102220 96
2007-04-10 07:54:59 51°10.551 2°39.203 11.1 331 10.4 102220 96
2007-04-10 07:55:04 51°10.548 2°39.174 11.6 286 10.4 102210 96
2007-04-10 07:55:09 51°10.544 2°39.145 11.2 330 10.4 102210 96
2007-04-10 07:55:14 51°10.541 2°39.115 11.4 331 10.4 102210 96
2007-04-10 07:55:19 51°10.538 2°39.086 12 330 10.4 102210 96
2007-04-10 07:55:24 51°10.534 2°39.057 12 281 10.4 102220 96
2007-04-10 07:55:29 51°10.531 2°39.027 11.4 330 10.4 102220 96
2007-04-10 07:55:34 51°10.527 2°38.998 11.4 282 10.4 102210 95
2007-04-10 07:55:39 51°10.524 2°38.969 11.4 330 10.4 102210 95
2007-04-10 07:55:44 51°10.521 2°38.939 12 282 10.4 102210 95
2007-04-10 07:55:49 51°10.518 2°38.91 11.1 332 10.4 102210 95
2007-04-10 07:55:54 51°10.514 2°38.88 11.3 282 10.4 102210 95
2007-04-10 07:55:59 51°10.511 2°38.851 11.6 332 10.4 102210 95
2007-04-10 07:56:04 51°10.507 2°38.822 11.3 285 10.4 102210 95
2007-04-10 07:56:09 51°10.504 2°38.792 11.1 332 10.4 102210 95
2007-04-10 07:56:14 51°10.501 2°38.763 10.9 332 10.4 102210 95
2007-04-10 07:56:19 51°10.497 2°38.733 11.2 333 10.4 102210 95
2007-04-10 07:56:24 51°10.494 2°38.704 11.5 279 10.4 102210 95
2007-04-10 07:56:29 51°10.49 2°38.675 10.9 333 10.4 102210 95
2007-04-10 07:56:34 51°10.486 2°38.645 10.9 280 10.4 102210 95
2007-04-10 07:56:39 51°10.483 2°38.616 10.6 332 10.4 102210 95
2007-04-10 07:56:44 51°10.479 2°38.586 11.5 279 10.4 102220 95
2007-04-10 07:56:49 51°10.476 2°38.557 11.4 334 10.4 102220 95
2007-04-10 07:56:54 51°10.472 2°38.527 11.7 279 10.4 102220 95
2007-04-10 07:56:59 51°10.469 2°38.498 11.3 333 10.4 102220 95
2007-04-10 07:57:04 51°10.465 2°38.468 12.3 282 10.4 102210 95
2007-04-10 07:57:09 51°10.461 2°38.439 11.4 332 10.4 102210 95
2007-04-10 07:57:14 51°10.458 2°38.409 12 333 10.4 102210 95
2007-04-10 07:57:19 51°10.455 2°38.379 11.9 334 10.4 102210 95
2007-04-10 07:57:24 51°10.451 2°38.35 11.1 282 10.4 102220 95
2007-04-10 07:57:29 51°10.448 2°38.32 11.9 333 10.4 102220 95
2007-04-10 07:57:34 51°10.445 2°38.291 11.7 286 10.4 102210 95
2007-04-10 07:57:39 51°10.441 2°38.261 11.3 334 10.4 102210 95
2007-04-10 07:57:44 51°10.437 2°38.232 12 278 10.4 102210 95
2007-04-10 07:57:49 51°10.434 2°38.202 11.5 334 10.4 102210 95
2007-04-10 07:57:54 51°10.43 2°38.172 11.8 286 10.4 102210 95
2007-04-10 07:57:59 51°10.427 2°38.143 11.2 334 10.4 102210 95
2007-04-10 07:58:04 51°10.423 2°38.113 11.9 276 10.4 102210 95
2007-04-10 07:58:10 51°10.419 2°38.078 12.3 333 10.4 102210 95
2007-04-10 07:58:14 51°10.416 2°38.054 11.6 333 10.4 102210 95
2007-04-10 07:58:19 51°10.413 2°38.024 11.9 334 10.4 102210 95
2007-04-10 07:58:24 51°10.409 2°37.995 12.2 278 10.4 102210 95
2007-04-10 07:58:29 51°10.405 2°37.965 12.1 334 10.4 102210 95
2007-04-10 07:58:34 51°10.403 2°37.935 11.6 280 10.4 102210 95
2007-04-10 07:58:39 51°10.399 2°37.906 11.6 333 10.4 102210 95
2007-04-10 07:58:44 51°10.395 2°37.876 11.7 285 10.4 102210 95
2007-04-10 07:58:49 51°10.392 2°37.846 11.7 333 10.4 102210 95
2007-04-10 07:58:54 51°10.389 2°37.817 11.7 280 10.4 102220 95
2007-04-10 07:58:59 51°10.385 2°37.788 11.5 334 10.4 102220 95
2007-04-10 07:59:04 51°10.382 2°37.758 11.4 282 10.4 102210 95
2007-04-10 07:59:09 51°10.378 2°37.728 11.9 333 10.4 102210 95
2007-04-10 07:59:14 51°10.375 2°37.699 11.5 334 10.4 102210 95
2007-04-10 07:59:19 51°10.371 2°37.67 12 334 10.4 102210 95
2007-04-10 07:59:24 51°10.367 2°37.64 11.5 286 10.5 102220 95
2007-04-10 07:59:29 51°10.364 2°37.611 11.9 332 10.5 102220 95
2007-04-10 07:59:34 51°10.36 2°37.581 11.7 281 10.5 102220 95
2007-04-10 07:59:39 51°10.357 2°37.552 12.3 333 10.5 102220 95
2007-04-10 07:59:44 51°10.353 2°37.522 11.8 281 10.5 102210 95
2007-04-10 07:59:49 51°10.35 2°37.493 11.5 333 10.5 102210 95
2007-04-10 07:59:54 51°10.347 2°37.463 11.6 284 10.5 102210 95
2007-04-10 07:59:59 51°10.344 2°37.434 11.6 332 10.5 102210 95
2007-04-10 08:00:04 51°10.341 2°37.404 11.5 279 10.5 102220 95
2007-04-10 08:00:09 51°10.339 2°37.374 11.6 332 10.5 102220 95
2007-04-10 08:00:14 51°10.337 2°37.344 11.9 334 10.5 102220 95
2007-04-10 08:00:19 51°10.335 2°37.314 11.4 332 10.5 102220 95
2007-04-10 08:00:24 51°10.332 2°37.284 11.6 284 10.5 102220 95
2007-04-10 08:00:29 51°10.33 2°37.254 11.9 333 10.5 102220 95
2007-04-10 08:00:34 51°10.329 2°37.224 12.2 283 10.5 102220 95
2007-04-10 08:00:39 51°10.326 2°37.195 12 333 10.5 102220 95
2007-04-10 08:00:44 51°10.325 2°37.165 11.8 286 10.5 102220 95
2007-04-10 08:00:49 51°10.322 2°37.135 11.2 332 10.5 102220 95
2007-04-10 08:00:54 51°10.32 2°37.105 11.7 286 10.5 102210 95
2007-04-10 08:00:59 51°10.318 2°37.075 11.9 333 10.5 102210 95
2007-04-10 08:01:04 51°10.316 2°37.045 11.5 279 10.5 102220 95
2007-04-10 08:01:09 51°10.314 2°37.015 11.8 333 10.5 102220 95
2007-04-10 08:01:14 51°10.312 2°36.985 11.7 333 10.5 102220 95
2007-04-10 08:01:19 51°10.31 2°36.955 11.6 334 10.5 102220 95
2007-04-10 08:01:24 51°10.308 2°36.925 11.8 282 10.5 102220 95
2007-04-10 08:01:29 51°10.307 2°36.895 11.6 333 10.5 102220 95
2007-04-10 08:01:34 51°10.307 2°36.865 11.5 278 10.5 102210 95
2007-04-10 08:01:39 51°10.308 2°36.834 11.8 331 10.5 102210 95
2007-04-10 08:01:44 51°10.309 2°36.805 12.2 281 10.5 102210 95
2007-04-10 08:01:49 51°10.311 2°36.775 11.6 330 10.5 102210 95
2007-04-10 08:01:54 51°10.313 2°36.745 11.6 281 10.5 102220 95
2007-04-10 08:01:59 51°10.315 2°36.715 11.6 330 10.5 102220 95
2007-04-10 08:02:04 51°10.319 2°36.685 11.8 284 10.5 102210 95
2007-04-10 08:02:09 51°10.323 2°36.656 12.3 329 10.5 102210 95
2007-04-10 08:02:14 51°10.328 2°36.627 11.8 328 10.5 102210 95
2007-04-10 08:02:19 51°10.333 2°36.599 11.9 329 10.5 102210 95
2007-04-10 08:02:24 51°10.339 2°36.57 11.7 281 10.5 102210 95
2007-04-10 08:02:29 51°10.346 2°36.542 10.7 328 10.5 102210 95
2007-04-10 08:02:34 51°10.354 2°36.516 11.4 281 10.5 102210 95
2007-04-10 08:02:39 51°10.363 2°36.49 10.9 325 10.5 102210 95
2007-04-10 08:02:44 51°10.373 2°36.466 11.7 277 10.5 102210 95
2007-04-10 08:02:49 51°10.384 2°36.441 11.1 324 10.5 102210 95
2007-04-10 08:02:54 51°10.395 2°36.419 10.7 286 10.5 102210 95
2007-04-10 08:02:59 51°10.408 2°36.399 11.4 322 10.5 102210 95
2007-04-10 08:03:04 51°10.422 2°36.38 10.3 280 10.5 102210 95
2007-04-10 08:03:09 51°10.436 2°36.362 10.2 320 10.5 102210 95
2007-04-10 08:03:14 51°10.452 2°36.347 10.7 320 10.5 102210 95
2007-04-10 08:03:19 51°10.468 2°36.333 10.6 319 10.5 102210 95
2007-04-10 08:03:24 51°10.484 2°36.32 9.8 278 10.5 102210 95
2007-04-10 08:03:29 51°10.501 2°36.309 10.4 315 10.5 102210 95
2007-04-10 08:03:34 51°10.518 2°36.299 9.3 280 10.5 102210 94
2007-04-10 08:03:39 51°10.536 2°36.293 10 33 10.5 102210 94
2007-04-10 08:03:44 51°10.554 2°36.288 9.8 281 10.5 102210 94
2007-04-10 08:03:49 51°10.573 2°36.285 9.4 40 10.5 102210 94
2007-04-10 08:03:54 51°10.591 2°36.284 9.5 285 10.5 102210 94
2007-04-10 08:03:59 51°10.61 2°36.286 9.3 36 10.5 102210 94
2007-04-10 08:04:04 51°10.628 2°36.288 8.5 280 10.5 102220 94
2007-04-10 08:04:09 51°10.646 2°36.291 8.3 36 10.5 102220 94
2007-04-10 08:04:14 51°10.665 2°36.296 8.5 19 10.5 102220 94